"Pseudo-MPEC" for P21IFYo

Created 2023 Sep 27 16:22:13 UT using Find_Orb

Click here for an explanation of pseudo-MPECs

 
 Astrometry: 
     P21IFYo* C2023 09 074d2Sg7y_4!N0,Astrometry\[BtD5hJu_@TuP5_dyLq@(/shwtp-F52
     P21IFYo  C2023 09 07Z,hW[fl#7AcWu^^KNwiM#;redacted;H,$AN!x.P*Q-e=yi.@,fpF52
     P21IFYo  C2023 09 07D$ArUeYH?^Cmclick_9kGjuxwhere;wfor^JqjjghHca$(a7bcVFF52
     P21IFYo  C2023 09 07,#+Fn,jC+g8!PK6@explanationpWctJBe3d(id4lI4:V$8;FPd'F51
     P21IFYo  C2023 09 07AT!72dV,hRc-@'5/l$V;lJKqbfqm([NJ6);HHK.6$KDDS3-E7=:*F51

Station data:
(F51) Pan-STARRS 1, Haleakala  (N20.707234 W156.255910)  US/Hawaii.
   Observers J. Bulger, T. Lowe, A. Schultz, M. Willman. Measurers K.
   Chambers, S. Chastel, T. de Boer, L. Denneau, J. Fairlamb, H. Flewelling,
   M. Huber, C.-C. Lin, E. Magnier, Y. Ramanjooloo, R. Wainscoat, R. Weryk.
   1.8-m Ritchey-Chrétien + CCD.
(F52) Pan-STARRS 2, Haleakala  (N20.707382 W156.255910)  US/Hawaii.
   Observers J. Bulger, T. Dukes, T. Lowe, A. Schultz, M. Willman. Measurers
   K. Chambers, S. Chastel, T. de Boer, L. Denneau, J. Fairlamb, H.
   Flewelling, M. Huber, C.-C. Lin, E. Magnier, Y. Ramanjooloo, R. Wainscoat,
   R. Weryk. 1.8-m Ritchey-Chrétien + CCD.

Orbital elements:  P21IFYo
   Perihelion 2022 Sep 20.31488 +/- 260 TT =  7:33:25 (JD 2459842.81488)
Epoch 2023 Sep  7.0 TT = JDT 2460194.5   Earth MOID: 0.0746      AutoNEOCP
M 166.85804248 +/- 110              (J2000 ecliptic)
n   0.47445294 +/- 0.383            Peri.  256.14254 +/- 70
a   1.62807329 +/- 0.876            Node   227.87162 +/- 52
e   0.5042749 +/- 0.213             Incl.   35.83822 +/- 17
P   2.08/758.75d           H 18.01  G  0.15   U 12.1  SR
q 0.80707666 +/- 1.24    Q 2.44906991 +/- 48.8
From 5 observations 2023 Sept. 7 (3.0 hr); mean residual 0".07
Residuals in arcseconds: 
230907 F52  .00   .05+    230907 F52  .09+  .05-    230907 F51  .07-  .11+    
230907 F52  .07-  .01-    230907 F51  .06+  .09-    

Ephemerides (geocentric):
Date (UTC) HH   RA             Dec           delta  r     elong  mag " sig PA
---- --------  ------------   ------------  ------ ------ -----  --- --------
2023 09 27 16  17 59 12.598   +13 40 37.24  2.2933 2.4485  86.6 22.9 2327  68
2023 09 27 17  17 59 14.609   +13 40 12.21  2.2938 2.4485  86.6 22.9 2336  68
2023 09 27 18  17 59 16.621   +13 39 47.20  2.2942 2.4485  86.6 22.9 2345  68
2023 09 27 19  17 59 18.635   +13 39 22.20  2.2947 2.4485  86.6 22.9 2354  68
2023 09 27 20  17 59 20.651   +13 38 57.21  2.2951 2.4485  86.5 22.9 2363  68
2023 09 27 21  17 59 22.669   +13 38 32.23  2.2956 2.4485  86.5 22.9 2372  68
2023 09 27 22  17 59 24.689   +13 38 07.26  2.2960 2.4485  86.5 22.9 2382  68
2023 09 27 23  17 59 26.711   +13 37 42.31  2.2965 2.4485  86.5 22.9 2391  68
2023 09 28 00  17 59 28.735   +13 37 17.36  2.2970 2.4485  86.4 22.9 2400  68
2023 09 28 01  17 59 30.761   +13 36 52.42  2.2974 2.4485  86.4 22.9 2409  68
2023 09 28 02  17 59 32.790   +13 36 27.50  2.2979 2.4485  86.4 22.9 2419  68
2023 09 28 03  17 59 34.820   +13 36 02.58  2.2983 2.4485  86.4 22.9 2428  68
2023 09 28 04  17 59 36.852   +13 35 37.68  2.2988 2.4485  86.3 22.9 2437  68
2023 09 28 05  17 59 38.886   +13 35 12.79  2.2992 2.4485  86.3 22.9 2446  68
2023 09 28 06  17 59 40.922   +13 34 47.91  2.2997 2.4486  86.3 22.9 2456  68
2023 09 28 07  17 59 42.960   +13 34 23.04  2.3001 2.4486  86.3 22.9 2465  68
2023 09 28 08  17 59 44.999   +13 33 58.18  2.3006 2.4486  86.2 22.9 2475  68
2023 09 28 09  17 59 47.041   +13 33 33.33  2.3011 2.4486  86.2 22.9 2484  68
2023 09 28 10  17 59 49.085   +13 33 08.49  2.3015 2.4486  86.2 22.9 2493  68
2023 09 28 11  17 59 51.131   +13 32 43.67  2.3020 2.4486  86.2 22.9 2503  68
2023 09 28 12  17 59 53.179   +13 32 18.85  2.3024 2.4486  86.2 22.9 2512  68
2023 09 28 13  17 59 55.229   +13 31 54.04  2.3029 2.4486  86.1 22.9 2522  68
2023 09 28 14  17 59 57.280   +13 31 29.25  2.3033 2.4486  86.1 22.9 2531  68
2023 09 28 15  17 59 59.334   +13 31 04.47  2.3038 2.4486  86.1 22.9 2541  68
2023 09 28 16  18 00 01.390   +13 30 39.70  2.3042 2.4486  86.1 22.9 2550  68
2023 09 28 17  18 00 03.448   +13 30 14.94  2.3047 2.4486  86.0 22.9 2560  68
2023 09 28 18  18 00 05.507   +13 29 50.19  2.3051 2.4486  86.0 22.9 2569  68
2023 09 28 19  18 00 07.569   +13 29 25.45  2.3056 2.4486  86.0 22.9 2579  68
2023 09 28 20  18 00 09.632   +13 29 00.72  2.3061 2.4486  86.0 22.9 2588  68
2023 09 28 21  18 00 11.698   +13 28 36.00  2.3065 2.4486  85.9 22.9 2598  68
2023 09 28 22  18 00 13.765   +13 28 11.30  2.3070 2.4487  85.9 22.9 2608  68
2023 09 28 23  18 00 15.835   +13 27 46.60  2.3074 2.4487  85.9 22.9 2617  68
2023 09 29 00  18 00 17.906   +13 27 21.92  2.3079 2.4487  85.9 22.9 2627  68
2023 09 29 01  18 00 19.979   +13 26 57.24  2.3083 2.4487  85.8 22.9 2637  68
2023 09 29 02  18 00 22.054   +13 26 32.58  2.3088 2.4487  85.8 22.9 2646  68
2023 09 29 03  18 00 24.132   +13 26 07.93  2.3092 2.4487  85.8 22.9 2656  68
2023 09 29 04  18 00 26.211   +13 25 43.29  2.3097 2.4487  85.8 22.9 2666  67
2023 09 29 05  18 00 28.292   +13 25 18.66  2.3102 2.4487  85.7 22.9 2676  67
2023 09 29 06  18 00 30.375   +13 24 54.04  2.3106 2.4487  85.7 22.9 2685  67
2023 09 29 07  18 00 32.460   +13 24 29.44  2.3111 2.4487  85.7 22.9 2695  67
2023 09 29 08  18 00 34.547   +13 24 04.84  2.3115 2.4487  85.7 22.9 2705  67
2023 09 29 09  18 00 36.636   +13 23 40.26  2.3120 2.4487  85.6 22.9 2715  67
2023 09 29 10  18 00 38.727   +13 23 15.68  2.3124 2.4487  85.6 22.9 2725  67
2023 09 29 11  18 00 40.819   +13 22 51.12  2.3129 2.4487  85.6 22.9 2734  67
2023 09 29 12  18 00 42.914   +13 22 26.57  2.3133 2.4487  85.6 22.9 2744  67
2023 09 29 13  18 00 45.011   +13 22 02.03  2.3138 2.4487  85.5 22.9 2754  67
2023 09 29 14  18 00 47.109   +13 21 37.50  2.3142 2.4487  85.5 22.9 2764  67
2023 09 29 15  18 00 49.210   +13 21 12.98  2.3147 2.4487  85.5 22.9 2774  67